Alma, MI

11:45 PM EST on November 19, 2019 (GMT -0500)
Gratiot Community

Weather History for KAMN - June, 2019

Change the Weather History Date:

Monday, June 3, 2019

  Actual Average Record
Temperature  
Mean Temperature 52 °F -  
Max Temperature 66 °F 74 °F 90 °F (1948)
Min Temperature 39 °F 49 °F 37 °F (2013)
Degree Days  
Heating Degree Days 12    
Growing Degree Days 2 (Base 50)    
Moisture  
Dew Point 36 °F    
Average Humidity 53    
Maximum Humidity 85    
Minimum Humidity 27    
Precipitation  
Precipitation 0.00 in - - ()
Sea Level Pressure  
Sea Level Pressure 30.11 in    
Wind  
Wind Speed 5 mph (WNW)    
Max Wind Speed 12 mph    
Max Gust Speed -    
Visibility 10 miles    
Events      
Averages and records for this station are not official NWS values.
T = Trace of Precipitation, MM = Missing Value Source: NWS Daily Summary

Daily Weather History Graph

Daily Weather History Graph

Search for Another Location

Airport or City:

Astronomy

Jun. 03, 2019 Rise Set
Actual Time 6:00 AM EDT 9:13 PM EDT
Civil Twilight 5:25 AM EDT 9:48 PM EDT
Nautical Twilight 4:40 AM EDT 10:33 PM EDT
Astronomical Twilight 3:45 AM EDT 11:28 PM EDT
Moon 6:22 AM EDT (6/3) 9:36 PM EDT (6/3)
Length of Visible Light 16h 23m
Length of Day
15h 13m
New Moon, 0% of the Moon is Illuminated
Jun 3
New Moon
Jun 10
First Quarter
Jun 17
Full
Jun 25
Last Quarter
Jul 2
New

Hourly Weather History & Observations

Time (EDT) Temp. Windchill Dew Point Humidity Pressure Visibility Wind Dir Wind Speed Gust Speed Precip Events Conditions
12:15 AM 48.9 °F - 28.2 °F 45% 30.04 in 10.0 mi NNW 5.8 mph - N/A   Clear
12:16 AM 48.9 °F - 28.2 °F 45% 30.04 in 10.0 mi NNW 6.9 mph - N/A   Clear
12:35 AM 47.8 °F - 28.6 °F 47% 30.04 in 10.0 mi NW 6.9 mph - N/A   Clear
12:36 AM 47.8 °F - 28.6 °F 47% 30.04 in 10.0 mi NW 5.8 mph - N/A   Clear
12:55 AM 48.2 °F - 29.3 °F 48% 30.05 in 10.0 mi NW 6.9 mph - N/A   Clear
1:15 AM 47.5 °F - 30.2 °F 51% 30.05 in 10.0 mi NW 5.8 mph - N/A   Clear
1:35 AM 46.4 °F 43.5 °F 31.5 °F 56% 30.06 in 10.0 mi WNW 5.8 mph - N/A   Clear
1:55 AM 45.0 °F 41.2 °F 32.2 °F 61% 30.06 in 10.0 mi NW 6.9 mph - N/A   Clear
2:15 AM 44.8 °F 41.0 °F 32.5 °F 62% 30.06 in 10.0 mi WNW 6.9 mph - N/A   Clear
2:16 AM 44.8 °F 41.0 °F 32.5 °F 62% 30.06 in 10.0 mi WNW 6.9 mph - N/A   Clear
2:35 AM 43.5 °F 41.9 °F 33.8 °F 69% 30.06 in 10.0 mi NW 3.5 mph - N/A   Clear
2:36 AM 43.5 °F 41.9 °F 33.6 °F 68% 30.06 in 10.0 mi NW 3.5 mph - N/A   Clear
2:55 AM 43.0 °F 39.5 °F 33.8 °F 70% 30.06 in 10.0 mi West 5.8 mph - N/A   Clear
3:15 AM 42.8 °F 38.6 °F 34.5 °F 73% 30.06 in 10.0 mi West 6.9 mph - N/A   Clear
3:36 AM 42.4 °F 39.6 °F 34.2 °F 72% 30.07 in 10.0 mi WNW 4.6 mph - N/A   Clear
3:55 AM 42.1 °F 38.4 °F 34.2 °F 74% 30.07 in 10.0 mi West 5.8 mph - N/A   Clear
3:56 AM 42.3 °F 38.6 °F 34.2 °F 73% 30.07 in 10.0 mi West 5.8 mph - N/A   Clear
4:15 AM 41.9 °F 39.0 °F 35.1 °F 77% 30.08 in 10.0 mi West 4.6 mph - N/A   Clear
4:35 AM 41.9 °F 40.0 °F 35.4 °F 78% 30.09 in 10.0 mi WNW 3.5 mph - N/A   Clear
4:36 AM 41.9 °F 40.0 °F 35.4 °F 78% 30.09 in 10.0 mi WNW 3.5 mph - N/A   Clear
4:55 AM 40.6 °F 38.6 °F 34.9 °F 80% 30.09 in 10.0 mi WNW 3.5 mph - N/A   Clear
5:15 AM 40.1 °F 38.0 °F 35.1 °F 82% 30.09 in 10.0 mi WNW 3.5 mph - N/A   Clear
5:16 AM 40.1 °F 38.0 °F 35.1 °F 82% 30.09 in 10.0 mi WNW 3.5 mph - N/A   Clear
5:35 AM 39.7 °F 36.5 °F 35.6 °F 85% 30.10 in 10.0 mi WNW 4.6 mph - N/A   Clear
5:36 AM 39.7 °F 35.6 °F 35.6 °F 85% 30.10 in 10.0 mi WNW 5.8 mph - N/A   Clear
5:56 AM 39.7 °F 36.5 °F 35.6 °F 85% 30.11 in 10.0 mi WNW 4.6 mph - N/A   Clear
6:15 AM 39.9 °F 37.8 °F 35.8 °F 85% 30.10 in 10.0 mi NW 3.5 mph - N/A   Clear
6:16 AM 40.1 °F 38.0 °F 35.8 °F 85% 30.10 in 10.0 mi NW 3.5 mph - N/A   Clear
6:35 AM 40.8 °F 38.8 °F 36.0 °F 83% 30.11 in 10.0 mi NW 3.5 mph - N/A   Clear
6:55 AM 43.0 °F 41.3 °F 36.7 °F 78% 30.12 in 10.0 mi WNW 3.5 mph - N/A   Clear
6:56 AM 43.0 °F 40.3 °F 36.9 °F 79% 30.12 in 10.0 mi WNW 4.6 mph - N/A   Clear
7:15 AM 44.6 °F 43.1 °F 36.7 °F 74% 30.12 in 10.0 mi NW 3.5 mph - N/A   Clear
7:17 AM 44.8 °F 41.6 °F 36.7 °F 73% 30.12 in 10.0 mi NW 5.8 mph - N/A   Clear
7:35 AM 45.9 °F 42.9 °F 36.9 °F 71% 30.13 in 10.0 mi NW 5.8 mph - N/A   Clear
7:55 AM 46.9 °F - 36.7 °F 68% 30.13 in 10.0 mi NW 6.9 mph - N/A   Clear
8:15 AM 48.2 °F - 36.9 °F 65% 30.14 in 10.0 mi NNW 4.6 mph - N/A   Clear
8:36 AM 49.3 °F - 37.0 °F 63% 30.14 in 10.0 mi NW 5.8 mph - N/A   Clear
8:55 AM 50.9 °F - 37.9 °F 61% 30.15 in 10.0 mi North 5.8 mph - N/A   Clear
8:56 AM 50.9 °F - 37.9 °F 61% 30.15 in 10.0 mi NNW 5.8 mph - N/A   Clear
9:15 AM 51.8 °F - 37.6 °F 58% 30.16 in 10.0 mi NNW 5.8 mph - N/A   Clear
9:17 AM 51.8 °F - 37.4 °F 58% 30.16 in 10.0 mi NW 3.5 mph - N/A   Clear
9:35 AM 52.7 °F - 37.9 °F 57% 30.17 in 10.0 mi WNW 3.5 mph - N/A   Clear
9:36 AM 52.7 °F - 37.8 °F 57% 30.17 in 10.0 mi WNW 3.5 mph - N/A   Clear
9:55 AM 53.6 °F - 37.0 °F 53% 30.16 in 10.0 mi WNW 4.6 mph - N/A   Clear
9:56 AM 53.6 °F - 36.7 °F 53% 30.16 in 10.0 mi WNW 5.8 mph - N/A   Clear
10:15 AM 54.5 °F - 36.9 °F 51% 30.16 in 10.0 mi North 5.8 mph - N/A   Clear
10:17 AM 54.7 °F - 35.6 °F 49% 30.16 in 10.0 mi North 3.5 mph - N/A   Clear
10:35 AM 55.6 °F - 36.0 °F 48% 30.16 in 10.0 mi NW 3.5 mph - N/A   Clear
10:36 AM 55.6 °F - 35.6 °F 47% 30.16 in 10.0 mi Calm Calm - N/A   Clear
10:55 AM 56.7 °F - 32.9 °F 41% 30.16 in 10.0 mi NW 6.9 mph - N/A   Clear
10:56 AM 56.7 °F - 32.5 °F 40% 30.16 in 10.0 mi NNW 6.9 mph - N/A   Clear
11:15 AM 57.0 °F - 34.0 °F 42% 30.17 in 10.0 mi Calm Calm - N/A   Clear
11:17 AM 56.5 °F - 33.4 °F 42% 30.17 in 10.0 mi Calm Calm - N/A   Clear
11:35 AM 58.1 °F - 34.2 °F 41% 30.17 in 10.0 mi WNW 3.5 mph - N/A   Clear
11:36 AM 58.1 °F - 33.6 °F 40% 30.17 in 10.0 mi Calm Calm - N/A   Clear
11:55 AM 58.3 °F - 33.8 °F 40% 30.17 in 10.0 mi SW 5.8 mph - N/A   Clear
11:56 AM 58.5 °F - 34.0 °F 40% 30.17 in 10.0 mi WSW 5.8 mph - N/A   Clear
12:15 PM 58.6 °F - 32.7 °F 38% 30.17 in 10.0 mi Calm Calm - N/A   Clear
12:35 PM 59.9 °F - 33.8 °F 38% 30.17 in 10.0 mi SW 6.9 mph - N/A   Clear
12:36 PM 59.9 °F - 33.8 °F 38% 30.17 in 10.0 mi WSW 8.1 mph - N/A   Clear
12:55 PM 60.4 °F - 34.2 °F 37% 30.16 in 10.0 mi WSW 4.6 mph - N/A   Clear
12:56 PM 60.4 °F - 33.4 °F 36% 30.16 in 10.0 mi WSW 3.5 mph - N/A   Clear
1:15 PM 61.7 °F - 34.9 °F 37% 30.15 in 10.0 mi WSW 5.8 mph - N/A   Clear
1:16 PM 61.7 °F - 34.5 °F 36% 30.15 in 10.0 mi SW 4.6 mph - N/A   Clear
1:36 PM 61.7 °F - 32.4 °F 33% 30.15 in 10.0 mi SSW 6.9 mph - N/A   Clear
1:55 PM 62.4 °F - 33.3 °F 34% 30.14 in 10.0 mi West 4.6 mph - N/A   Clear
1:56 PM 62.4 °F - 33.4 °F 34% 30.15 in 10.0 mi West 8.1 mph - N/A   Clear
2:15 PM 62.8 °F - 34.3 °F 35% 30.14 in 10.0 mi West 5.8 mph - N/A   Clear
2:16 PM 63.0 °F - 34.5 °F 35% 30.14 in 10.0 mi West 4.6 mph - N/A   Clear
2:36 PM 63.7 °F - 34.2 °F 33% 30.14 in 10.0 mi WNW 6.9 mph - N/A   Clear
2:55 PM 64.0 °F - 34.7 °F 34% 30.13 in 10.0 mi NW 9.2 mph - N/A   Clear
2:56 PM 64.2 °F - 34.5 °F 33% 30.13 in 10.0 mi NW 6.9 mph - N/A   Clear
3:15 PM 63.9 °F - 31.6 °F 30% 30.12 in 10.0 mi North 3.5 mph - N/A   Clear
3:36 PM 64.8 °F - 32.5 °F 30% 30.12 in 10.0 mi West 5.8 mph - N/A   Clear
3:55 PM 64.9 °F - 32.2 °F 29% 30.12 in 10.0 mi WSW 8.1 mph - N/A   Clear
3:56 PM 65.1 °F - 32.2 °F 29% 30.12 in 10.0 mi WSW 8.1 mph - N/A   Clear
4:15 PM 65.5 °F - 33.3 °F 30% 30.12 in 10.0 mi WSW 6.9 mph - N/A   Clear
4:35 PM 66.0 °F - 32.5 °F 29% 30.11 in 10.0 mi WNW 11.5 mph - N/A   Clear
4:36 PM 66.2 °F - 32.5 °F 29% 30.11 in 10.0 mi WNW 8.1 mph - N/A   Clear
4:55 PM 66.2 °F - 32.2 °F 28% 30.11 in 10.0 mi South 4.6 mph - N/A   Clear
4:57 PM 66.0 °F - 31.8 °F 28% 30.11 in 10.0 mi SW 6.9 mph - N/A   Clear
5:15 PM 66.9 °F - 34.0 °F 30% 30.11 in 10.0 mi WNW 9.2 mph - N/A   Clear
5:35 PM 66.9 °F - 31.8 °F 27% 30.10 in 10.0 mi WNW 9.2 mph - N/A   Clear
5:56 PM 65.5 °F - 32.4 °F 29% 30.10 in 10.0 mi WNW 9.2 mph - N/A   Clear
6:15 PM 65.3 °F - 32.4 °F 29% 30.10 in 10.0 mi West 6.9 mph - N/A   Clear
6:35 PM 65.5 °F - 31.8 °F 28% 30.10 in 10.0 mi WSW 6.9 mph - N/A   Clear
6:37 PM 65.5 °F - 32.0 °F 29% 30.10 in 10.0 mi West 5.8 mph - N/A   Clear
6:55 PM 66.4 °F - 33.4 °F 29% 30.10 in 10.0 mi West 8.1 mph - N/A   Scattered Clouds
6:56 PM 66.2 °F - 33.1 °F 29% 30.10 in 10.0 mi West 8.1 mph - N/A   Scattered Clouds
7:15 PM 64.9 °F - 33.1 °F 31% 30.09 in 10.0 mi West 5.8 mph - N/A   Scattered Clouds
7:35 PM 64.4 °F - 34.2 °F 32% 30.09 in 10.0 mi SW 3.5 mph - N/A   Scattered Clouds
7:36 PM 64.4 °F - 34.7 °F 33% 30.09 in 10.0 mi SW 3.5 mph - N/A   Scattered Clouds
7:55 PM 64.4 °F - 39.2 °F 40% 30.09 in 10.0 mi Calm Calm - N/A   Scattered Clouds
7:57 PM 64.4 °F - 39.7 °F 40% 30.09 in 10.0 mi Calm Calm - N/A   Scattered Clouds
8:15 PM 63.7 °F - 41.2 °F 44% 30.09 in 10.0 mi Calm Calm - N/A   Clear
8:16 PM 63.7 °F - 42.6 °F 46% 30.09 in 10.0 mi Calm Calm - N/A   Clear
8:35 PM 62.2 °F - 48.6 °F 61% 30.09 in 10.0 mi Calm Calm - N/A   Clear
8:55 PM 60.3 °F - 46.6 °F 61% 30.08 in 10.0 mi Calm Calm - N/A   Clear
9:15 PM 58.5 °F - 47.3 °F 66% 30.08 in 10.0 mi Calm Calm - N/A   Scattered Clouds
9:35 PM 55.8 °F - 48.2 °F 76% 30.09 in 10.0 mi NW 3.5 mph - N/A   Clear
9:36 PM 55.6 °F - 48.0 °F 76% 30.09 in 10.0 mi NW 4.6 mph - N/A   Clear
9:55 PM 57.2 °F - 41.0 °F 55% 30.09 in 10.0 mi Calm Calm - N/A   Clear
9:56 PM 57.2 °F - 41.2 °F 55% 30.09 in 10.0 mi Calm Calm - N/A   Clear
10:16 PM 53.8 °F - 46.0 °F 75% 30.09 in 10.0 mi Calm Calm - N/A   Clear
10:35 PM 52.2 °F - 47.1 °F 83% 30.10 in 10.0 mi Calm Calm - N/A   Clear
10:36 PM 51.8 °F - 46.6 °F 82% 30.10 in 10.0 mi Calm Calm - N/A   Clear
10:56 PM 51.8 °F - 45.7 °F 80% 30.11 in 10.0 mi Calm Calm - N/A   Clear
11:15 PM 50.5 °F - 43.7 °F 77% 30.11 in 10.0 mi NW 3.5 mph - N/A   Clear
11:35 PM 52.7 °F - 46.2 °F 79% 30.11 in 10.0 mi Calm Calm - N/A   Scattered Clouds
11:36 PM 52.7 °F - 46.0 °F 78% 30.11 in 10.0 mi Calm Calm - N/A   Scattered Clouds
11:55 PM 52.5 °F - 44.8 °F 75% 30.10 in 10.0 mi Calm Calm - N/A   Mostly Cloudy